Year,Month,Day,Hour,Minute,Value (Times are PST for temperature in C)
2016,09,29,00,00,6.60
2016,09,29,00,01,6.60
2016,09,29,00,02,6.60
2016,09,29,00,03,6.50
2016,09,29,00,04,6.50
2016,09,29,00,05,6.50
2016,09,29,00,06,6.50
2016,09,29,00,07,6.50
2016,09,29,00,08,6.40
2016,09,29,00,09,6.40
2016,09,29,00,10,6.40
2016,09,29,00,11,6.40
2016,09,29,00,12,6.40
2016,09,29,00,13,6.40
2016,09,29,00,14,6.40
2016,09,29,00,15,6.40
2016,09,29,00,16,6.40
2016,09,29,00,17,6.40
2016,09,29,00,18,6.40
2016,09,29,00,19,6.40
2016,09,29,00,20,6.40
2016,09,29,00,21,6.40
2016,09,29,00,22,6.40
2016,09,29,00,23,6.40
2016,09,29,00,24,6.40
2016,09,29,00,25,6.30
2016,09,29,00,26,6.30
2016,09,29,00,27,6.30
2016,09,29,00,28,6.30
2016,09,29,00,29,6.30
2016,09,29,00,30,6.30
2016,09,29,00,31,6.30
2016,09,29,00,32,6.30
2016,09,29,00,33,6.30
2016,09,29,00,34,6.20
2016,09,29,00,35,6.20
2016,09,29,00,36,6.20
2016,09,29,00,37,6.20
2016,09,29,00,38,6.20
2016,09,29,00,39,6.20
2016,09,29,00,40,6.20
2016,09,29,00,41,6.20
2016,09,29,00,42,6.20
2016,09,29,00,43,6.20
2016,09,29,00,44,6.20
2016,09,29,00,45,6.10
2016,09,29,00,46,6.10
2016,09,29,00,47,6.10
2016,09,29,00,48,6.10
2016,09,29,00,49,6.10
2016,09,29,00,50,6.10
2016,09,29,00,51,6.10
2016,09,29,00,52,6.10
2016,09,29,00,53,6.00
2016,09,29,00,54,6.00
2016,09,29,00,55,6.00
2016,09,29,00,56,6.00
2016,09,29,00,57,6.00
2016,09,29,00,58,6.00
2016,09,29,00,59,6.00
2016,09,29,01,00,6.00
2016,09,29,01,01,6.00
2016,09,29,01,02,6.00
2016,09,29,01,03,6.00
2016,09,29,01,04,6.00
2016,09,29,01,05,5.90
2016,09,29,01,06,5.90
2016,09,29,01,07,5.90
2016,09,29,01,08,5.90
2016,09,29,01,09,5.90
2016,09,29,01,10,5.90
2016,09,29,01,11,5.90
2016,09,29,01,12,5.90
2016,09,29,01,13,5.90
2016,09,29,01,14,5.90
2016,09,29,01,15,5.90
2016,09,29,01,16,5.90
2016,09,29,01,17,5.90
2016,09,29,01,18,5.90
2016,09,29,01,19,5.90
2016,09,29,01,20,5.90
2016,09,29,01,21,5.90
2016,09,29,01,22,5.90
2016,09,29,01,23,5.80
2016,09,29,01,24,5.80
2016,09,29,01,25,5.80
2016,09,29,01,26,5.80
2016,09,29,01,27,5.80
2016,09,29,01,28,5.80
2016,09,29,01,29,5.80
2016,09,29,01,30,5.80
2016,09,29,01,31,5.80
2016,09,29,01,32,5.80
2016,09,29,01,33,5.80
2016,09,29,01,34,5.80
2016,09,29,01,35,5.80
2016,09,29,01,36,5.80
2016,09,29,01,37,5.80
2016,09,29,01,38,5.80
2016,09,29,01,39,5.70
2016,09,29,01,40,5.70
2016,09,29,01,41,5.70
2016,09,29,01,42,5.70
2016,09,29,01,43,5.70
2016,09,29,01,44,5.70
2016,09,29,01,45,5.70
2016,09,29,01,46,5.70
2016,09,29,01,47,5.70
2016,09,29,01,48,5.70
2016,09,29,01,49,5.70
2016,09,29,01,50,5.60
2016,09,29,01,51,5.70
2016,09,29,01,52,5.60
2016,09,29,01,53,5.60
2016,09,29,01,54,5.60
2016,09,29,01,55,5.60
2016,09,29,01,56,5.60
2016,09,29,01,57,5.60
2016,09,29,01,58,5.60
2016,09,29,01,59,5.60
2016,09,29,02,00,5.60
2016,09,29,02,01,5.60
2016,09,29,02,02,5.60
2016,09,29,02,03,5.60
2016,09,29,02,04,5.60
2016,09,29,02,05,5.60
2016,09,29,02,06,5.60
2016,09,29,02,07,5.60
2016,09,29,02,08,5.60
2016,09,29,02,09,5.60
2016,09,29,02,10,5.60
2016,09,29,02,11,5.60
2016,09,29,02,12,5.60
2016,09,29,02,13,5.60
2016,09,29,02,14,5.50
2016,09,29,02,15,5.50
2016,09,29,02,16,5.50
2016,09,29,02,17,5.50
2016,09,29,02,18,5.50
2016,09,29,02,19,5.50
2016,09,29,02,20,5.40
2016,09,29,02,21,5.40
2016,09,29,02,22,5.40
2016,09,29,02,23,5.40
2016,09,29,02,24,5.40
2016,09,29,02,25,5.40
2016,09,29,02,26,5.40
2016,09,29,02,27,5.40
2016,09,29,02,28,5.40
2016,09,29,02,29,5.40
2016,09,29,02,30,5.40
2016,09,29,02,31,5.40
2016,09,29,02,32,5.40
2016,09,29,02,33,5.40
2016,09,29,02,34,5.40
2016,09,29,02,35,5.40
2016,09,29,02,36,5.40
2016,09,29,02,37,5.40
2016,09,29,02,38,5.40
2016,09,29,02,39,5.30
2016,09,29,02,40,5.30
2016,09,29,02,41,5.30
2016,09,29,02,42,5.30
2016,09,29,02,43,5.30
2016,09,29,02,44,5.30
2016,09,29,02,45,5.30
2016,09,29,02,46,5.30
2016,09,29,02,47,5.30
2016,09,29,02,48,5.30
2016,09,29,02,49,5.30
2016,09,29,02,50,5.30
2016,09,29,02,51,5.30
2016,09,29,02,52,5.30
2016,09,29,02,53,5.30
2016,09,29,02,54,5.30
2016,09,29,02,55,5.30
2016,09,29,02,56,5.30
2016,09,29,02,57,5.30
2016,09,29,02,58,5.30
2016,09,29,02,59,5.30
2016,09,29,03,00,5.30
2016,09,29,03,01,5.30
2016,09,29,03,02,5.30
2016,09,29,03,03,5.30
2016,09,29,03,04,5.20
2016,09,29,03,05,5.20
2016,09,29,03,06,5.20
2016,09,29,03,07,5.20
2016,09,29,03,08,5.20
2016,09,29,03,09,5.20
2016,09,29,03,10,5.20
2016,09,29,03,11,5.20
2016,09,29,03,12,5.20
2016,09,29,03,13,5.20
2016,09,29,03,14,5.20
2016,09,29,03,15,5.20
2016,09,29,03,16,5.20
2016,09,29,03,17,5.20
2016,09,29,03,18,5.10
2016,09,29,03,19,5.10
2016,09,29,03,20,5.10
2016,09,29,03,21,5.10
2016,09,29,03,22,5.10
2016,09,29,03,23,5.10
2016,09,29,03,24,5.10
2016,09,29,03,25,5.10
2016,09,29,03,26,5.10
2016,09,29,03,27,5.10
2016,09,29,03,28,5.10
2016,09,29,03,29,5.10
2016,09,29,03,30,5.10
2016,09,29,03,31,5.10
2016,09,29,03,32,5.10
2016,09,29,03,33,5.10
2016,09,29,03,34,5.10
2016,09,29,03,35,5.10
2016,09,29,03,36,5.10
2016,09,29,03,37,5.10
2016,09,29,03,38,5.10
2016,09,29,03,39,5.10
2016,09,29,03,40,5.10
2016,09,29,03,41,5.10
2016,09,29,03,42,5.10
2016,09,29,03,43,5.00
2016,09,29,03,44,5.00
2016,09,29,03,45,5.00
2016,09,29,03,46,5.00
2016,09,29,03,47,5.00
2016,09,29,03,48,5.00
2016,09,29,03,49,5.00
2016,09,29,03,50,5.00
2016,09,29,03,51,5.00
2016,09,29,03,52,5.00
2016,09,29,03,53,5.00
2016,09,29,03,54,5.00
2016,09,29,03,55,5.00
2016,09,29,03,56,5.00
2016,09,29,03,57,5.00
2016,09,29,03,58,4.90
2016,09,29,03,59,4.90
2016,09,29,04,00,4.90
2016,09,29,04,01,4.90
2016,09,29,04,02,4.90
2016,09,29,04,03,4.90
2016,09,29,04,04,4.90
2016,09,29,04,05,4.90
2016,09,29,04,06,4.90
2016,09,29,04,07,4.90
2016,09,29,04,08,4.90
2016,09,29,04,09,4.90
2016,09,29,04,10,4.90
2016,09,29,04,11,4.90
2016,09,29,04,12,4.90
2016,09,29,04,13,4.90
2016,09,29,04,14,4.90
2016,09,29,04,15,4.90
2016,09,29,04,16,4.80
2016,09,29,04,17,4.80
2016,09,29,04,18,4.80
2016,09,29,04,19,4.80
2016,09,29,04,20,4.80
2016,09,29,04,21,4.80
2016,09,29,04,22,4.80
2016,09,29,04,23,4.80
2016,09,29,04,24,4.80
2016,09,29,04,25,4.80
2016,09,29,04,26,4.80
2016,09,29,04,27,4.80
2016,09,29,04,28,4.80
2016,09,29,04,29,4.80
2016,09,29,04,30,4.80
2016,09,29,04,31,4.80
2016,09,29,04,32,4.80
2016,09,29,04,33,4.80
2016,09,29,04,34,4.80
2016,09,29,04,35,4.80
2016,09,29,04,36,4.80
2016,09,29,04,37,4.70
2016,09,29,04,38,4.70
2016,09,29,04,39,4.70
2016,09,29,04,40,4.70
2016,09,29,04,41,4.70
2016,09,29,04,42,4.70
2016,09,29,04,43,4.70
2016,09,29,04,44,4.70
2016,09,29,04,45,4.70
2016,09,29,04,46,4.70
2016,09,29,04,47,4.70
2016,09,29,04,48,4.70
2016,09,29,04,49,4.70
2016,09,29,04,50,4.70
2016,09,29,04,51,4.70
2016,09,29,04,52,4.70
2016,09,29,04,53,4.70
2016,09,29,04,54,4.70
2016,09,29,04,55,4.70
2016,09,29,04,56,4.70
2016,09,29,04,57,4.70
2016,09,29,04,58,4.70
2016,09,29,04,59,4.70
2016,09,29,05,00,4.70
2016,09,29,05,01,4.70
2016,09,29,05,02,4.70
2016,09,29,05,03,4.70
2016,09,29,05,04,4.70
2016,09,29,05,05,4.70
2016,09,29,05,06,4.70
2016,09,29,05,07,4.70
2016,09,29,05,08,4.70
2016,09,29,05,09,4.70
2016,09,29,05,10,4.70
2016,09,29,05,11,4.70
2016,09,29,05,12,4.70
2016,09,29,05,13,4.70
2016,09,29,05,14,4.70
2016,09,29,05,15,4.70
2016,09,29,05,16,4.70
2016,09,29,05,17,4.70
2016,09,29,05,18,4.70
2016,09,29,05,19,4.70
2016,09,29,05,20,4.70
2016,09,29,05,21,4.70
2016,09,29,05,22,4.70
2016,09,29,05,23,4.70
2016,09,29,05,24,4.70
2016,09,29,05,25,4.70
2016,09,29,05,26,4.70
2016,09,29,05,27,4.70
2016,09,29,05,28,4.70
2016,09,29,05,29,4.70
2016,09,29,05,30,4.70
2016,09,29,05,31,4.70
2016,09,29,05,32,4.70
2016,09,29,05,33,4.70
2016,09,29,05,34,4.70
2016,09,29,05,35,4.70
2016,09,29,05,36,4.80
2016,09,29,05,37,4.80
2016,09,29,05,38,4.80
2016,09,29,05,39,4.80
2016,09,29,05,40,4.80
2016,09,29,05,41,4.80
2016,09,29,05,42,4.80
2016,09,29,05,43,4.80
2016,09,29,05,44,4.80
2016,09,29,05,45,4.80
2016,09,29,05,46,4.80
2016,09,29,05,47,4.80
2016,09,29,05,48,4.80
2016,09,29,05,49,4.80
2016,09,29,05,50,4.80
2016,09,29,05,51,4.80
2016,09,29,05,52,4.80
2016,09,29,05,53,4.80
2016,09,29,05,54,4.80
2016,09,29,05,55,4.80
2016,09,29,05,56,4.80
2016,09,29,05,57,4.80
2016,09,29,05,58,4.80
2016,09,29,05,59,4.80
2016,09,29,06,00,4.80
2016,09,29,06,01,4.80
2016,09,29,06,02,4.80
2016,09,29,06,03,4.80
2016,09,29,06,04,4.80
2016,09,29,06,05,4.80
2016,09,29,06,06,4.80
2016,09,29,06,07,4.80
2016,09,29,06,08,4.80
2016,09,29,06,09,4.80
2016,09,29,06,10,4.80
2016,09,29,06,11,4.80
2016,09,29,06,12,4.80
2016,09,29,06,13,4.80
2016,09,29,06,14,4.70
2016,09,29,06,15,4.70
2016,09,29,06,16,4.70
2016,09,29,06,17,4.70
2016,09,29,06,18,4.70
2016,09,29,06,19,4.70
2016,09,29,06,20,4.70
2016,09,29,06,21,4.70
2016,09,29,06,22,4.70
2016,09,29,06,23,4.70
2016,09,29,06,24,4.70
2016,09,29,06,25,4.70
2016,09,29,06,26,4.70
2016,09,29,06,27,4.70
2016,09,29,06,28,4.80
2016,09,29,06,29,4.80
2016,09,29,06,30,4.80
2016,09,29,06,31,4.80
2016,09,29,06,32,4.80
2016,09,29,06,33,4.70
2016,09,29,06,34,4.70
2016,09,29,06,35,4.80
2016,09,29,06,36,4.70
2016,09,29,06,37,4.70
2016,09,29,06,38,4.80
2016,09,29,06,39,4.80
2016,09,29,06,40,4.80
2016,09,29,06,41,4.70
2016,09,29,06,42,4.70
2016,09,29,06,43,4.80
2016,09,29,06,44,4.80
2016,09,29,06,45,4.80
2016,09,29,06,46,4.80
2016,09,29,06,47,4.80
2016,09,29,06,48,4.80
2016,09,29,06,49,4.80
2016,09,29,06,50,4.80
2016,09,29,06,51,4.80
2016,09,29,06,52,4.80
2016,09,29,06,53,4.80
2016,09,29,06,54,4.90
2016,09,29,06,55,4.90
2016,09,29,06,56,4.90
2016,09,29,06,57,4.90
2016,09,29,06,58,4.90
2016,09,29,06,59,4.90
2016,09,29,07,00,4.90
2016,09,29,07,01,4.80
2016,09,29,07,02,4.80
2016,09,29,07,03,4.80
2016,09,29,07,04,4.80
2016,09,29,07,05,4.80
2016,09,29,07,06,4.80
2016,09,29,07,07,4.80
2016,09,29,07,08,4.80
2016,09,29,07,09,4.80
2016,09,29,07,10,4.90
2016,09,29,07,11,4.90
2016,09,29,07,12,4.90
2016,09,29,07,13,4.90
2016,09,29,07,14,4.90
2016,09,29,07,15,4.90
2016,09,29,07,16,4.90
2016,09,29,07,17,5.00
2016,09,29,07,18,4.90
2016,09,29,07,19,5.00
2016,09,29,07,20,5.00
2016,09,29,07,21,5.00
2016,09,29,07,22,5.00
2016,09,29,07,23,5.00
2016,09,29,07,24,5.10
2016,09,29,07,25,5.10
2016,09,29,07,26,5.10
2016,09,29,07,27,5.10
2016,09,29,07,28,5.10
2016,09,29,07,29,5.10
2016,09,29,07,30,5.10
2016,09,29,07,31,5.10
2016,09,29,07,32,5.10
2016,09,29,07,33,5.10
2016,09,29,07,34,5.10
2016,09,29,07,35,5.10
2016,09,29,07,36,5.10
2016,09,29,07,37,5.10
2016,09,29,07,38,5.10
2016,09,29,07,39,5.10
2016,09,29,07,40,5.10
2016,09,29,07,41,5.10
2016,09,29,07,42,5.10
2016,09,29,07,43,5.10
2016,09,29,07,44,5.10
2016,09,29,07,45,5.20
2016,09,29,07,46,5.20
2016,09,29,07,47,5.20
2016,09,29,07,48,5.20
2016,09,29,07,49,5.20
2016,09,29,07,50,5.30
2016,09,29,07,51,5.30
2016,09,29,07,52,5.30
2016,09,29,07,53,5.30
2016,09,29,07,54,5.30
2016,09,29,07,55,5.30
2016,09,29,07,56,5.30
2016,09,29,07,57,5.40
2016,09,29,07,58,5.40
2016,09,29,07,59,5.40
2016,09,29,08,00,5.40
2016,09,29,08,01,5.40
2016,09,29,08,02,5.50
2016,09,29,08,03,5.50
2016,09,29,08,04,5.50
2016,09,29,08,05,5.60
2016,09,29,08,06,5.60
2016,09,29,08,07,5.60
2016,09,29,08,08,5.60
2016,09,29,08,09,5.70
2016,09,29,08,10,5.70
2016,09,29,08,11,5.70
2016,09,29,08,12,5.70
2016,09,29,08,13,5.70
2016,09,29,08,14,5.70
2016,09,29,08,15,5.70
2016,09,29,08,16,5.80
2016,09,29,08,17,5.80
2016,09,29,08,18,5.80
2016,09,29,08,19,5.80
2016,09,29,08,20,5.80
2016,09,29,08,21,5.80
2016,09,29,08,22,5.80
2016,09,29,08,23,5.80
2016,09,29,08,24,5.90
2016,09,29,08,25,5.90
2016,09,29,08,26,5.90
2016,09,29,08,27,5.90
2016,09,29,08,28,5.90
2016,09,29,08,29,6.00
2016,09,29,08,30,6.00
2016,09,29,08,31,6.00
2016,09,29,08,32,6.10
2016,09,29,08,33,6.10
2016,09,29,08,34,6.10
2016,09,29,08,35,6.10
2016,09,29,08,36,6.20
2016,09,29,08,37,6.20
2016,09,29,08,38,6.20
2016,09,29,08,39,6.20
2016,09,29,08,40,6.30
2016,09,29,08,41,6.30
2016,09,29,08,42,6.30
2016,09,29,08,43,6.40
2016,09,29,08,44,6.40
2016,09,29,08,45,6.40
2016,09,29,08,46,6.50
2016,09,29,08,47,6.50
2016,09,29,08,48,6.50
2016,09,29,08,49,6.60
2016,09,29,08,50,6.60
2016,09,29,08,51,6.60
2016,09,29,08,52,6.70
2016,09,29,08,53,6.70
2016,09,29,08,54,6.70
2016,09,29,08,55,6.80
2016,09,29,08,56,6.80
2016,09,29,08,57,6.80
2016,09,29,08,58,6.90
2016,09,29,08,59,6.90
2016,09,29,09,00,7.00
2016,09,29,09,01,7.00
2016,09,29,09,02,7.10
2016,09,29,09,03,7.20
2016,09,29,09,04,7.20
2016,09,29,09,05,7.20
2016,09,29,09,06,7.30
2016,09,29,09,07,7.40
2016,09,29,09,08,7.50
2016,09,29,09,09,7.50
2016,09,29,09,10,7.60
2016,09,29,09,11,7.60
2016,09,29,09,12,7.70
2016,09,29,09,13,7.80
2016,09,29,09,14,7.80
2016,09,29,09,15,7.80
2016,09,29,09,16,7.90
2016,09,29,09,17,8.00
2016,09,29,09,18,8.10
2016,09,29,09,19,8.10
2016,09,29,09,20,8.20
2016,09,29,09,21,8.20
2016,09,29,09,22,8.20
2016,09,29,09,23,8.30
2016,09,29,09,24,8.30
2016,09,29,09,25,8.40
2016,09,29,09,26,8.40
2016,09,29,09,27,8.50
2016,09,29,09,28,8.50
2016,09,29,09,29,8.60
2016,09,29,09,30,8.60
2016,09,29,09,31,8.70
2016,09,29,09,32,8.70
2016,09,29,09,33,8.70
2016,09,29,09,34,8.80
2016,09,29,09,35,8.80
2016,09,29,09,36,8.80
2016,09,29,09,37,8.90
2016,09,29,09,38,8.90
2016,09,29,09,39,8.90
2016,09,29,09,40,8.90
2016,09,29,09,41,9.00
2016,09,29,09,42,9.00
2016,09,29,09,43,9.10
2016,09,29,09,44,9.10
2016,09,29,09,45,9.10
2016,09,29,09,46,9.20
2016,09,29,09,47,9.20
2016,09,29,09,48,9.20
2016,09,29,09,49,9.30
2016,09,29,09,50,9.30
2016,09,29,09,51,9.30
2016,09,29,09,52,9.40
2016,09,29,09,53,9.40
2016,09,29,09,54,9.40
2016,09,29,09,55,9.40
2016,09,29,09,56,9.40
2016,09,29,09,57,9.40
2016,09,29,09,58,9.50
2016,09,29,09,59,9.50
2016,09,29,10,00,9.60
2016,09,29,10,01,9.60
2016,09,29,10,02,9.60
2016,09,29,10,03,9.70
2016,09,29,10,04,9.70
2016,09,29,10,05,9.70
2016,09,29,10,06,9.80
2016,09,29,10,07,9.80
2016,09,29,10,08,9.90
2016,09,29,10,09,9.90
2016,09,29,10,10,10.00
2016,09,29,10,11,10.10
2016,09,29,10,12,10.20
2016,09,29,10,13,10.30
2016,09,29,10,14,10.40
2016,09,29,10,15,10.40
2016,09,29,10,16,10.50
2016,09,29,10,17,10.60
2016,09,29,10,18,10.60
2016,09,29,10,19,10.70
2016,09,29,10,20,10.70
2016,09,29,10,21,10.70
2016,09,29,10,22,10.80
2016,09,29,10,23,10.80
2016,09,29,10,24,10.90
2016,09,29,10,25,10.90
2016,09,29,10,26,11.00
2016,09,29,10,27,11.10
2016,09,29,10,28,11.20
2016,09,29,10,29,11.30
2016,09,29,10,30,11.40
2016,09,29,10,31,11.50
2016,09,29,10,32,11.60
2016,09,29,10,33,11.60
2016,09,29,10,34,11.70
2016,09,29,10,35,11.80
2016,09,29,10,36,11.90
2016,09,29,10,37,12.00
2016,09,29,10,38,12.10
2016,09,29,10,39,12.20
2016,09,29,10,40,12.30
2016,09,29,10,41,12.30
2016,09,29,10,42,12.30
2016,09,29,10,43,12.40
2016,09,29,10,44,12.50
2016,09,29,10,45,12.50
2016,09,29,10,46,12.60
2016,09,29,10,47,12.70
2016,09,29,10,48,12.70
2016,09,29,10,49,12.80
2016,09,29,10,50,12.80
2016,09,29,10,51,12.80
2016,09,29,10,52,12.80
2016,09,29,10,53,12.90
2016,09,29,10,54,12.90
2016,09,29,10,55,12.90
2016,09,29,10,56,13.00
2016,09,29,10,57,13.00
2016,09,29,10,58,13.00
2016,09,29,10,59,13.10
2016,09,29,11,00,13.10
2016,09,29,11,01,13.20
2016,09,29,11,02,13.10
2016,09,29,11,03,13.10
2016,09,29,11,04,13.10
2016,09,29,11,05,13.10
2016,09,29,11,06,13.20
2016,09,29,11,07,13.20
2016,09,29,11,08,13.30
2016,09,29,11,09,13.30
2016,09,29,11,10,13.40
2016,09,29,11,11,13.50
2016,09,29,11,12,13.50
2016,09,29,11,13,13.60
2016,09,29,11,14,13.60
2016,09,29,11,15,13.60
2016,09,29,11,16,13.70
2016,09,29,11,17,13.70
2016,09,29,11,18,13.70
2016,09,29,11,19,13.70
2016,09,29,11,20,13.80
2016,09,29,11,21,13.80
2016,09,29,11,22,13.80
2016,09,29,11,23,13.80
2016,09,29,11,24,13.80
2016,09,29,11,25,13.80
2016,09,29,11,26,13.90
2016,09,29,11,27,13.90
2016,09,29,11,28,13.90
2016,09,29,11,29,13.90
2016,09,29,11,30,14.00
2016,09,29,11,31,14.10
2016,09,29,11,32,14.10
2016,09,29,11,33,14.10
2016,09,29,11,34,14.10
2016,09,29,11,35,14.20
2016,09,29,11,36,14.20
2016,09,29,11,37,14.20
2016,09,29,11,38,14.20
2016,09,29,11,39,14.20
2016,09,29,11,40,14.20
2016,09,29,11,41,14.10
2016,09,29,11,42,14.10
2016,09,29,11,43,14.20
2016,09,29,11,44,14.10
2016,09,29,11,45,14.10
2016,09,29,11,46,14.10
2016,09,29,11,47,14.10
2016,09,29,11,48,14.10
2016,09,29,11,49,14.10
2016,09,29,11,50,14.20
2016,09,29,11,51,14.20
2016,09,29,11,52,14.30
2016,09,29,11,53,14.30
2016,09,29,11,54,14.30
2016,09,29,11,55,14.40
2016,09,29,11,56,14.40
2016,09,29,11,57,14.50
2016,09,29,11,58,14.60
2016,09,29,11,59,14.60
2016,09,29,12,00,14.70
2016,09,29,12,01,14.70
2016,09,29,12,02,14.70
2016,09,29,12,03,14.70
2016,09,29,12,04,14.80
2016,09,29,12,05,14.80
2016,09,29,12,06,14.90
2016,09,29,12,07,15.00
2016,09,29,12,08,15.00
2016,09,29,12,09,15.00
2016,09,29,12,10,15.00
2016,09,29,12,11,15.00
2016,09,29,12,12,15.00
2016,09,29,12,13,15.00
2016,09,29,12,14,15.00
2016,09,29,12,15,15.00
2016,09,29,12,16,15.00
2016,09,29,12,17,15.10
2016,09,29,12,18,15.20
2016,09,29,12,19,15.30
2016,09,29,12,20,15.30
2016,09,29,12,21,15.30
2016,09,29,12,22,15.30
2016,09,29,12,23,15.40
2016,09,29,12,24,15.40
2016,09,29,12,25,15.50
2016,09,29,12,26,15.50
2016,09,29,12,27,15.50
2016,09,29,12,28,15.40
2016,09,29,12,29,15.40
2016,09,29,12,30,15.30
2016,09,29,12,31,15.30
2016,09,29,12,32,15.30
2016,09,29,12,33,15.30
2016,09,29,12,34,15.30
2016,09,29,12,35,15.30
2016,09,29,12,36,15.20
2016,09,29,12,37,15.20
2016,09,29,12,38,15.20
2016,09,29,12,39,15.20
2016,09,29,12,40,15.30
2016,09,29,12,41,15.30
2016,09,29,12,42,15.30
2016,09,29,12,43,15.30
2016,09,29,12,44,15.30
2016,09,29,12,45,15.30
2016,09,29,12,46,15.40
2016,09,29,12,47,15.40
2016,09,29,12,48,15.30
2016,09,29,12,49,15.40
2016,09,29,12,50,15.40
2016,09,29,12,51,15.40
2016,09,29,12,52,15.40
2016,09,29,12,53,15.40
2016,09,29,12,54,15.40
2016,09,29,12,55,15.50
2016,09,29,12,56,15.50
2016,09,29,12,57,15.50
2016,09,29,12,58,15.60
2016,09,29,12,59,15.60
2016,09,29,13,00,15.60
2016,09,29,13,01,15.50
2016,09,29,13,02,15.40
2016,09,29,13,03,15.30
2016,09,29,13,04,15.30
2016,09,29,13,05,15.30
2016,09,29,13,06,15.30
2016,09,29,13,07,15.40
2016,09,29,13,08,15.40
2016,09,29,13,09,15.50
2016,09,29,13,10,15.70
2016,09,29,13,11,15.70
2016,09,29,13,12,15.80
2016,09,29,13,13,15.80
2016,09,29,13,14,15.80
2016,09,29,13,15,15.90
2016,09,29,13,16,15.90
2016,09,29,13,17,15.90
2016,09,29,13,18,15.90
2016,09,29,13,19,16.00
2016,09,29,13,20,16.00
2016,09,29,13,21,16.10
2016,09,29,13,22,16.10
2016,09,29,13,23,16.20
2016,09,29,13,24,16.20
2016,09,29,13,25,16.20
2016,09,29,13,26,16.10
2016,09,29,13,27,16.10
2016,09,29,13,28,16.10
2016,09,29,13,29,16.10
2016,09,29,13,30,16.00
2016,09,29,13,31,16.00
2016,09,29,13,32,16.00
2016,09,29,13,33,16.10
2016,09,29,13,34,16.10
2016,09,29,13,35,16.10
2016,09,29,13,36,16.20
2016,09,29,13,37,16.20
2016,09,29,13,38,16.30
2016,09,29,13,39,16.30
2016,09,29,13,40,16.30
2016,09,29,13,41,16.40
2016,09,29,13,42,16.40
2016,09,29,13,43,16.40
2016,09,29,13,44,16.40
2016,09,29,13,45,16.50
2016,09,29,13,46,16.40
2016,09,29,13,47,16.40
2016,09,29,13,48,16.30
2016,09,29,13,49,16.30
2016,09,29,13,50,16.30
2016,09,29,13,51,16.30
2016,09,29,13,52,16.30
2016,09,29,13,53,16.30
2016,09,29,13,54,16.20
2016,09,29,13,55,16.10
2016,09,29,13,56,16.10
2016,09,29,13,57,16.00
2016,09,29,13,58,16.00
2016,09,29,13,59,16.00
2016,09,29,14,00,16.10
2016,09,29,14,01,16.20
2016,09,29,14,02,16.20
2016,09,29,14,03,16.30
2016,09,29,14,04,16.30
2016,09,29,14,05,16.40
2016,09,29,14,06,16.40
2016,09,29,14,07,16.50
2016,09,29,14,08,16.50
2016,09,29,14,09,16.50
2016,09,29,14,10,16.50
2016,09,29,14,11,16.50
2016,09,29,14,12,16.50
2016,09,29,14,13,16.50
2016,09,29,14,14,16.50
2016,09,29,14,15,16.50
2016,09,29,14,16,16.50
2016,09,29,14,17,16.40
2016,09,29,14,18,16.40
2016,09,29,14,19,16.40
2016,09,29,14,20,16.40
2016,09,29,14,21,16.40
2016,09,29,14,22,16.40
2016,09,29,14,23,16.50
2016,09,29,14,24,16.50
2016,09,29,14,25,16.50
2016,09,29,14,26,16.40
2016,09,29,14,27,16.40
2016,09,29,14,28,16.50
2016,09,29,14,29,16.50
2016,09,29,14,30,16.40
2016,09,29,14,31,16.50
2016,09,29,14,32,16.40
2016,09,29,14,33,16.30
2016,09,29,14,34,16.30
2016,09,29,14,35,16.30
2016,09,29,14,36,16.30
2016,09,29,14,37,16.30
2016,09,29,14,38,16.30
2016,09,29,14,39,16.30
2016,09,29,14,40,16.40
2016,09,29,14,41,16.30
2016,09,29,14,42,16.30
2016,09,29,14,43,16.30
2016,09,29,14,44,16.30
2016,09,29,14,45,16.20
2016,09,29,14,46,16.20
2016,09,29,14,47,16.20
2016,09,29,14,48,16.20
2016,09,29,14,49,16.10
2016,09,29,14,50,16.10
2016,09,29,14,51,16.10
2016,09,29,14,52,16.10
2016,09,29,14,53,16.10
2016,09,29,14,54,16.10
2016,09,29,14,55,16.10
2016,09,29,14,56,16.10
2016,09,29,14,57,16.00
2016,09,29,14,58,16.00
2016,09,29,14,59,15.90
2016,09,29,15,00,15.90
2016,09,29,15,01,15.90
2016,09,29,15,02,15.90
2016,09,29,15,03,15.90
2016,09,29,15,04,16.00
2016,09,29,15,05,16.00
2016,09,29,15,06,16.10
2016,09,29,15,07,16.10
2016,09,29,15,08,16.10
2016,09,29,15,09,16.10
2016,09,29,15,10,16.10
2016,09,29,15,11,16.10
2016,09,29,15,12,16.10
2016,09,29,15,13,16.10
2016,09,29,15,14,16.00
2016,09,29,15,15,16.00
2016,09,29,15,16,15.90
2016,09,29,15,17,15.90
2016,09,29,15,18,15.80
2016,09,29,15,19,15.80
2016,09,29,15,20,15.80
2016,09,29,15,21,15.70
2016,09,29,15,22,15.70
2016,09,29,15,23,15.60
2016,09,29,15,24,15.60
2016,09,29,15,25,15.50
2016,09,29,15,26,15.50
2016,09,29,15,27,15.40
2016,09,29,15,28,15.40
2016,09,29,15,29,15.40
2016,09,29,15,30,15.50
2016,09,29,15,31,15.50
2016,09,29,15,32,15.50
2016,09,29,15,33,15.50
2016,09,29,15,34,15.50
2016,09,29,15,35,15.50
2016,09,29,15,36,15.40
2016,09,29,15,37,15.40
2016,09,29,15,38,15.40
2016,09,29,15,39,15.40
2016,09,29,15,40,15.40
2016,09,29,15,41,15.40
2016,09,29,15,42,15.40
2016,09,29,15,43,15.40
2016,09,29,15,44,15.40
2016,09,29,15,45,15.40
2016,09,29,15,46,15.40
2016,09,29,15,47,15.40
2016,09,29,15,48,15.50
2016,09,29,15,49,15.50
2016,09,29,15,50,15.50
2016,09,29,15,51,15.50
2016,09,29,15,52,15.50
2016,09,29,15,53,15.40
2016,09,29,15,54,15.40
2016,09,29,15,55,15.40
2016,09,29,15,56,15.40
2016,09,29,15,57,15.30
2016,09,29,15,58,15.30
2016,09,29,15,59,15.30
2016,09,29,16,00,15.30
2016,09,29,16,01,15.40
2016,09,29,16,02,15.40
2016,09,29,16,03,15.40
2016,09,29,16,04,15.30
2016,09,29,16,05,15.30
2016,09,29,16,06,15.30
2016,09,29,16,07,15.30
2016,09,29,16,08,15.30
2016,09,29,16,09,15.30
2016,09,29,16,10,15.30
2016,09,29,16,11,15.30
2016,09,29,16,12,15.20
2016,09,29,16,13,15.20
2016,09,29,16,14,15.20
2016,09,29,16,15,15.20
2016,09,29,16,16,15.20
2016,09,29,16,17,15.20
2016,09,29,16,18,15.10
2016,09,29,16,19,15.10
2016,09,29,16,20,15.00
2016,09,29,16,21,15.00
2016,09,29,16,22,15.00
2016,09,29,16,23,15.00
2016,09,29,16,24,15.00
2016,09,29,16,25,15.00
2016,09,29,16,26,15.00
2016,09,29,16,27,15.00
2016,09,29,16,28,15.00
2016,09,29,16,29,15.00
2016,09,29,16,30,15.00
2016,09,29,16,31,15.00
2016,09,29,16,32,15.00
2016,09,29,16,33,15.00
2016,09,29,16,34,15.00
2016,09,29,16,35,15.00
2016,09,29,16,36,15.00
2016,09,29,16,37,15.00
2016,09,29,16,38,15.00
2016,09,29,16,39,15.00
2016,09,29,16,40,14.90
2016,09,29,16,41,14.90
2016,09,29,16,42,14.90
2016,09,29,16,43,14.80
2016,09,29,16,44,14.80
2016,09,29,16,45,14.80
2016,09,29,16,46,14.80
2016,09,29,16,47,14.80
2016,09,29,16,48,14.80
2016,09,29,16,49,14.80
2016,09,29,16,50,14.80
2016,09,29,16,51,14.80
2016,09,29,16,52,14.80
2016,09,29,16,53,14.80
2016,09,29,16,54,14.80
2016,09,29,16,55,14.80
2016,09,29,16,56,14.80
2016,09,29,16,57,14.80
2016,09,29,16,58,14.80
2016,09,29,16,59,14.80
2016,09,29,17,00,14.80
2016,09,29,17,01,14.80
2016,09,29,17,02,14.80
2016,09,29,17,03,14.80
2016,09,29,17,04,14.80
2016,09,29,17,05,14.80
2016,09,29,17,06,14.80
2016,09,29,17,07,14.70
2016,09,29,17,08,14.70
2016,09,29,17,09,14.70
2016,09,29,17,10,14.70
2016,09,29,17,11,14.60
2016,09,29,17,12,14.60
2016,09,29,17,13,14.60
2016,09,29,17,14,14.60
2016,09,29,17,15,14.50
2016,09,29,17,16,14.50
2016,09,29,17,17,14.40
2016,09,29,17,18,14.40
2016,09,29,17,19,14.30
2016,09,29,17,20,14.30
2016,09,29,17,21,14.30
2016,09,29,17,22,14.20
2016,09,29,17,23,14.20
2016,09,29,17,24,14.20
2016,09,29,17,25,14.10
2016,09,29,17,26,14.10
2016,09,29,17,27,14.10
2016,09,29,17,28,14.00
2016,09,29,17,29,13.90
2016,09,29,17,30,13.90
2016,09,29,17,31,13.90
2016,09,29,17,32,13.80
2016,09,29,17,33,13.80
2016,09,29,17,34,13.80
2016,09,29,17,35,13.80
2016,09,29,17,36,13.70
2016,09,29,17,37,13.70
2016,09,29,17,38,13.60
2016,09,29,17,39,13.60
2016,09,29,17,40,13.60
2016,09,29,17,41,13.60
2016,09,29,17,42,13.60
2016,09,29,17,43,13.60
2016,09,29,17,44,13.50
2016,09,29,17,45,13.50